User: anonymous   Login
Location: Sundre
(51.7972°N, 114.6405°W)
Time: 01:03:26
(UTC-07:00)
Language:

BUGSAT 1 - Orbit

View from above orbital plane
View from above orbital plane
View from above satellite
View from above satellite

Ground track
Ground track

The orbit data is extracted from the following two-line orbital elements,

1 40014U 14033E   20026.13520695 -.00000425  00000-0 -32398-4 0  9993
2 40014  98.0444 343.9902 0032938  47.9932 312.4095 14.95380814305598
Epoch (UTC): 26 January 2020 03:14:41
Eccentricity: 0.0032938
inclination: 98.0444°
perigee height: 558 km
apogee height: 604 km
right ascension of ascending node: 343.9902°
argument of perigee: 47.9932°
revolutions per day: 14.95380814
mean anomaly at epoch: 312.4095°
orbit number at epoch: 30559

The dashed part of the orbit path shows where the satellite is in the earth's shadow,  

DLR